Weather reports worldwide

Advertisment
Leconfield, United Kingdom (3382): temperature & dewpoint: 25.09.2020 00:00:00 - 01.10.2020 00:00:00 (BST)Leconfield, United Kingdom (3382): temperature -20cm & temperature -100cm: 25.09.2020 00:00:00 - 01.10.2020 00:00:00 (BST)Leconfield, United Kingdom (3382): wind speed & gusts: 25.09.2020 00:00:00 - 01.10.2020 00:00:00 (BST)Leconfield, United Kingdom (3382): wind direction: 25.09.2020 00:00:00 - 01.10.2020 00:00:00 (BST)Leconfield, United Kingdom (3382): reduced air pressure: 25.09.2020 00:00:00 - 01.10.2020 00:00:00 (BST)Leconfield, United Kingdom (3382): visibility: 25.09.2020 00:00:00 - 01.10.2020 00:00:00 (BST)Leconfield, United Kingdom (3382): sunshine duration: 25.09.2020 00:00:00 - 01.10.2020 00:00:00 (BST)Leconfield, United Kingdom (3382): precipitation: 25.09.2020 00:00:00 - 01.10.2020 00:00:00 (BST)
Date & Time tt [°C] td [°C] tt -20cm [°C] tt -100cm [°C] ff [km/h] ff [kn] fx [km/h] fx [kn] dd ppp [hPa] vv [km] sd [min] rr [mm]
01.10.2020 00:00:00 13,7 12,9 - - 11 6 - - S 997,1 7 0 0,2
30.09.2020 23:00:00 13,7 13,0 - - 13 7 - - S 997,5 24 0 0,6
30.09.2020 22:00:00 13,6 12,9 - - 11 6 - - S 998,0 8 0 1,0
30.09.2020 21:00:00 13,7 12,5 - - 11 6 - - S 998,5 10 0 0,0
30.09.2020 20:00:00 13,8 13,0 - - 15 8 - - S 998,9 10 0 1,0
30.09.2020 19:00:00 13,8 13,1 - - 15 8 - - SSE 999,5 7 0 0,4
30.09.2020 18:00:00 13,7 12,7 - - 15 8 - - SSE 1000,1 11 0 0,8
30.09.2020 17:00:00 14,1 12,2 - - 15 8 - - S 1001,0 7 0 0,0
30.09.2020 16:00:00 13,8 11,1 - - 9 5 - - S 1001,8 10 0 0,0
30.09.2020 15:00:00 14,0 10,3 - - 15 8 - - S 1002,5 30 0 0,0
30.09.2020 14:00:00 13,6 10,2 - - 16 9 - - S 1003,2 16 - 0,0
30.09.2020 13:00:00 - - - - - - - - - - - - -
30.09.2020 12:00:00 - - - - - - - - - - - - -
30.09.2020 11:00:00 - - - - - - - - - - - - -
30.09.2020 10:00:00 12,4 8,8 - - 11 6 - - S 1006,5 10 12 0,0
30.09.2020 09:00:00 11,0 8,4 - - 11 6 - - S 1007,4 22 0 0,0
30.09.2020 08:00:00 10,1 8,6 - - 11 6 - - S 1007,8 13 0 0,0
30.09.2020 07:00:00 9,5 8,5 - - 8 4 - - S 1008,0 9 0 0,0
30.09.2020 06:00:00 9,6 8,9 - - 8 4 - - S 1008,5 8 0 0,0
30.09.2020 05:00:00 10,2 9,7 - - 9 5 - - S 1008,9 6 0 0,0
30.09.2020 04:00:00 10,9 10,5 - - 9 5 - - S 1009,7 4,9 0 0,0
30.09.2020 03:00:00 10,8 10,5 - - 8 4 - - SSE 1010,7 5 0 0,0
30.09.2020 02:00:00 10,3 10,0 - - 5 3 - - SSE 1011,4 9 0 0,0
30.09.2020 01:00:00 10,1 10,0 - - 8 4 - - SSE 1011,9 10 - 0,0
30.09.2020 00:00:00 8,2 7,9 - - 2 1 - - SE 1012,6 0,6 0 0,0
29.09.2020 23:00:00 8,3 7,9 - - 2 1 - - E 1013,2 0,2 0 0,0
29.09.2020 22:00:00 8,5 8,0 - - 4 2 - - SE 1013,9 7 0 0,0
29.09.2020 21:00:00 9,0 8,4 - - 4 2 - - E 1014,3 5 0 0,0
29.09.2020 20:00:00 9,6 8,7 - - 5 3 - - E 1014,4 9 0 0,0
29.09.2020 19:00:00 11,0 9,4 - - 8 4 - - E 1014,6 13 6 0,0
29.09.2020 18:00:00 13,1 9,9 - - 15 8 - - E 1014,4 21 54 0,0
29.09.2020 17:00:00 16,7 4,8 - - 9 5 - - W 1014,4 10 60 0,0
29.09.2020 16:00:00 17,0 5,7 - - 11 6 - - W 1014,5 10 12 0,0
29.09.2020 15:00:00 16,9 5,9 - - 11 6 - - W 1014,7 10 0 0,0
29.09.2020 14:00:00 16,8 7,3 - - 8 4 - - WSW 1015,0 24 0 0,0
29.09.2020 13:00:00 16,0 7,6 - - 11 6 - - W 1015,5 10 24 0,0
29.09.2020 12:00:00 15,8 8,0 - - 4 2 - - WNW 1015,6 10 60 0,0
29.09.2020 11:00:00 14,6 7,8 - - 8 4 - - NNW 1015,9 7 60 0,0
29.09.2020 10:00:00 13,5 8,2 12,2 13,4 9 5 - - NNW 1015,8 10 60 0,0
29.09.2020 09:00:00 12,0 8,8 - - 5 3 - - NW 1015,5 10 54 0,0
29.09.2020 08:00:00 10,6 8,6 - - 8 4 - - WNW 1015,2 10 0 0,0
29.09.2020 07:00:00 11,9 9,4 - - 5 3 - - NNW 1014,6 30 0 0,0
29.09.2020 06:00:00 12,4 10,5 - - 5 3 - - NNW 1014,3 20 0 0,0
29.09.2020 05:00:00 12,8 11,3 - - 5 3 - - NW 1014,0 22 0 0,0
29.09.2020 04:00:00 13,0 11,7 - - 5 3 - - W 1013,8 17 0 0,0
29.09.2020 03:00:00 13,3 11,9 - - 2 1 - - N 1014,0 14 0 0,0
29.09.2020 02:00:00 13,7 12,4 - - 8 4 - - NNW 1013,5 10 0 0,0
29.09.2020 01:00:00 13,6 12,5 - - 8 4 - - NNW 1013,0 8 - 0,0
29.09.2020 00:00:00 13,7 12,8 - - 8 4 - - W 1013,2 7 0 0,0
28.09.2020 23:00:00 13,5 12,0 - - 5 3 - - W 1012,9 9 0 0,0
28.09.2020 22:00:00 13,8 11,7 - - 5 3 - - WNW 1012,8 16 0 0,0
28.09.2020 21:00:00 12,4 11,4 - - 4 2 - - WSW 1012,3 15 0 0,0
28.09.2020 20:00:00 10,2 8,5 - - 4 2 - - SW 1012,0 30 0 0,0
28.09.2020 19:00:00 11,9 8,6 - - 4 2 - - SSE 1011,7 10 12 0,0
28.09.2020 18:00:00 15,1 8,9 - - 4 2 - - WSW 1011,4 35 36 0,0
28.09.2020 17:00:00 14,6 7,4 - - 4 2 - - W 1011,1 40 0 0,0
28.09.2020 16:00:00 14,3 6,2 - - 9 5 - - W 1011,0 35 0 0,0
28.09.2020 15:00:00 14,7 5,8 - - 8 4 - - WNW 1011,2 35 6 0,0
28.09.2020 14:00:00 13,9 6,8 - - 9 5 - - W 1011,3 27 54 0,0
28.09.2020 13:00:00 12,9 7,6 - - 11 6 - - W 1011,7 10 60 0,0
28.09.2020 12:00:00 11,0 6,9 - - 9 5 - - WSW 1011,8 10 0 0,0
28.09.2020 11:00:00 10,4 6,2 - - 15 8 - - W 1012,1 10 36 0,0
28.09.2020 10:00:00 10,3 7,1 11,7 13,7 9 5 - - W 1011,9 10 60 0,0
28.09.2020 09:00:00 8,8 7,3 - - 9 5 - - W 1012,1 21 48 0,0
28.09.2020 08:00:00 6,8 6,1 - - 8 4 - - W 1012,1 15 0 0,0
28.09.2020 07:00:00 6,4 5,2 - - 5 3 - - W 1011,9 12 0 0,0
28.09.2020 06:00:00 8,8 6,8 - - 4 2 - - W 1011,9 10 0 0,0
28.09.2020 05:00:00 8,9 6,9 - - 5 3 - - WNW 1012,3 21 0 0,0
28.09.2020 04:00:00 8,6 6,7 - - 9 5 - - W 1012,8 20 0 0,0
28.09.2020 03:00:00 8,7 6,8 - - 9 5 - - W 1013,4 10 0 0,0
28.09.2020 02:00:00 8,4 6,7 - - 9 5 - - W 1013,6 27 0 0,0
28.09.2020 01:00:00 9,1 7,1 - - 8 4 - - W 1014,0 10 - 0,0
28.09.2020 00:00:00 9,7 7,4 - - 9 5 - - NW 1014,2 10 0 0,0
27.09.2020 23:00:00 9,7 7,7 - - 9 5 - - WNW 1014,2 35 0 0,0
27.09.2020 22:00:00 9,5 7,7 - - 9 5 - - NW 1014,5 10 0 0,0
27.09.2020 21:00:00 9,1 7,3 - - 8 4 - - NW 1014,4 30 0 0,0
27.09.2020 20:00:00 9,9 7,6 - - 11 6 - - NNW 1014,1 28 0 0,0
27.09.2020 19:00:00 11,0 7,8 - - 11 6 - - NNW 1014,1 10 0 0,0
27.09.2020 18:00:00 11,4 8,1 - - 13 7 - - N 1014,0 10 0 0,0
27.09.2020 17:00:00 12,1 8,0 - - 16 9 - - NNW 1013,9 10 0 0,0
27.09.2020 16:00:00 12,3 8,1 - - 18 10 - - N 1013,7 10 0 0,0
27.09.2020 15:00:00 12,5 8,2 - - 18 10 - - N 1014,0 10 0 0,0
27.09.2020 14:00:00 13,2 8,0 - - 22 12 - - N 1013,8 10 36 0,0
27.09.2020 13:00:00 13,3 8,6 - - 22 12 - - N 1013,9 20 12 0,0
27.09.2020 12:00:00 12,6 8,8 - - 24 13 - - N 1014,0 35 12 0,0
27.09.2020 11:00:00 11,7 8,2 - - 24 13 46 25 N 1014,1 10 6 0,0
27.09.2020 10:00:00 11,0 7,7 - - 28 15 - - N 1013,7 10 6 0,0
27.09.2020 09:00:00 10,4 7,6 - - 22 12 - - N 1013,9 10 0 0,0
27.09.2020 08:00:00 10,2 7,1 - - 22 12 - - N 1013,6 25 0 0,0
27.09.2020 07:00:00 9,9 7,0 - - 24 13 - - NNW 1013,1 20 0 0,0
27.09.2020 06:00:00 9,8 7,0 - - 22 12 - - NNW 1013,3 11 0 0,0
27.09.2020 05:00:00 10,0 6,7 - - 26 14 - - NNW 1013,3 10 0 0,0
27.09.2020 04:00:00 10,3 6,4 - - 26 14 50 27 N 1013,3 10 0 0,0
27.09.2020 03:00:00 10,2 6,6 - - 24 13 46 25 NNW 1013,6 15 0 0,0
27.09.2020 02:00:00 10,3 6,8 - - 24 13 - - NNW 1014,0 10 0 0,0
27.09.2020 01:00:00 10,7 6,2 - - 22 12 - - N 1013,7 10 - 0,0
27.09.2020 00:00:00 10,5 6,6 - - 22 12 - - N 1013,8 10 0 0,0
26.09.2020 23:00:00 10,8 6,5 - - 22 12 - - N 1013,8 12 0 0,0
26.09.2020 22:00:00 10,7 6,9 - - 24 13 - - NNW 1013,7 10 0 0,0
26.09.2020 21:00:00 10,5 7,4 - - 26 14 - - NNW 1013,8 10 0 0,0
26.09.2020 20:00:00 10,6 7,2 - - 29 16 46 25 NNW 1013,4 12 0 0,0
26.09.2020 19:00:00 11,1 7,2 - - 26 14 46 25 N 1013,1 12 0 0,0
26.09.2020 18:00:00 11,7 7,1 - - 31 17 54 29 N 1012,5 14 24 0,0
26.09.2020 17:00:00 11,6 7,9 - - 29 16 52 28 N 1012,5 14 6 0,0
26.09.2020 16:00:00 12,2 8,8 - - 28 15 - - NNW 1012,0 9 0 0,0
26.09.2020 15:00:00 11,1 9,2 - - 24 13 - - NNW 1011,3 9 0 0,2
26.09.2020 14:00:00 10,5 9,5 - - 21 11 - - NNW 1011,0 7 0 0,2
26.09.2020 13:00:00 10,0 8,2 - - 22 12 52 28 NNW 1010,8 6 0 0,0
26.09.2020 12:00:00 11,0 7,0 - - 31 17 55 30 NNW 1010,3 10 0 0,0
26.09.2020 11:00:00 10,8 6,6 - - 31 17 52 28 NNW 1009,8 18 24 0,0
26.09.2020 10:00:00 9,7 5,3 - - 26 14 52 28 NNW 1009,5 10 36 0,0
26.09.2020 09:00:00 8,4 4,3 - - 26 14 46 25 NW 1009,1 10 6 0,0
26.09.2020 08:00:00 7,5 3,9 - - 24 13 - - NW 1009,1 35 0 0,0
26.09.2020 07:00:00 7,8 3,4 - - 26 14 - - NNW 1008,8 45 0 0,0
26.09.2020 06:00:00 7,6 3,2 - - 24 13 - - NW 1008,3 10 0 0,0
26.09.2020 05:00:00 7,8 3,0 - - 29 16 50 27 NW 1008,2 35 0 0,0
26.09.2020 04:00:00 7,8 3,2 - - 24 13 - - NW 1008,1 29 0 0,0
26.09.2020 03:00:00 8,2 3,8 - - 21 11 - - NW 1008,2 10 0 0,0
26.09.2020 02:00:00 9,4 4,2 - - 28 15 46 25 NNW 1007,9 10 0 0,0
26.09.2020 01:00:00 9,5 4,4 - - 28 15 48 26 NNW 1007,8 10 - 0,0
26.09.2020 00:00:00 9,5 4,4 - - 29 16 48 26 NNW 1007,8 19 0 0,0
25.09.2020 23:00:00 9,2 5,6 - - 29 16 52 28 NNW 1007,4 10 0 0,0
25.09.2020 22:00:00 9,3 6,6 - - 26 14 52 28 NW 1007,4 10 0 0,2
25.09.2020 21:00:00 9,3 7,4 - - 26 14 63 34 NNW 1007,0 10 0 0,8
25.09.2020 20:00:00 9,8 7,5 - - 28 15 59 32 NNW 1006,4 16 0 0,8
25.09.2020 19:00:00 10,9 7,0 - - 31 17 57 31 NNW 1005,5 10 6 0,0
25.09.2020 18:00:00 11,6 5,6 - - 37 20 65 35 NNW 1004,5 20 36 0,0
25.09.2020 17:00:00 11,1 5,6 - - 39 21 63 34 NNW 1004,1 10 0 0,2
25.09.2020 16:00:00 9,5 7,3 - - 34 18 59 32 NNW 1003,3 9 0 1,4
25.09.2020 15:00:00 11,3 7,0 - - 35 19 61 33 NW 1002,2 20 0 0,0
25.09.2020 14:00:00 10,8 7,4 - - 37 20 63 34 NNW 1001,4 30 0 0,6
25.09.2020 13:00:00 10,5 7,5 - - 37 20 59 32 NNW 1000,7 8 0 0,2
25.09.2020 12:00:00 11,2 7,2 - - 39 21 67 36 NNW 999,9 10 0 0,0
25.09.2020 11:00:00 10,0 7,9 - - 35 19 63 34 NNW 999,5 22 0 0,2
25.09.2020 10:00:00 10,2 7,3 12,7 14,2 31 17 52 28 NNW 998,4 10 0 0,0
25.09.2020 09:00:00 9,6 7,3 - - 29 16 48 26 NNW 998,1 7 0 0,4
25.09.2020 08:00:00 9,9 6,7 - - 31 17 50 27 NNW 997,5 11 0 0,2
25.09.2020 07:00:00 10,0 6,7 - - 24 13 50 27 NNW 997,0 10 0 0,0
25.09.2020 06:00:00 9,6 7,0 - - 24 13 - - N 996,4 10 0 0,0
25.09.2020 05:00:00 9,8 7,2 - - 26 14 - - NNW 995,8 19 0 0,6
25.09.2020 04:00:00 9,3 8,1 - - 28 15 48 26 NNW 995,7 14 0 1,6
25.09.2020 03:00:00 9,2 8,2 - - 22 12 - - NNW 995,4 10 0 4,2
25.09.2020 02:00:00 9,6 8,3 - - 18 10 - - NNW 995,2 10 0 0,8
25.09.2020 01:00:00 9,6 8,7 - - 13 7 48 26 NNW 995,2 10 - 1,2
25.09.2020 00:00:00 9,3 8,5 - - 9 5 - - N 995,3 10 0 1,2

tt = temperature
td = dewpoint
tt -20cm = temperature -20cm
tt -100cm = temperature -100cm
ff = wind speed
fx = gusts
dd = wind direction
ppp = reduced air pressure
vv = visibility
sd = sunshine duration
rr = precipitation

Next stations